Time,TemperatureF,DewpointF,PressureIn,WindDirection,WindDirectionDegrees,WindSpeedMPH,WindSpeedGustMPH,Humidity,HourlyPrecipIn,Conditions,Clouds,dailyrainin,SoftwareType,DateUTC
2013-02-15 00:00:00,65.7,60.0,30.41,NW,315,1.2,1.2,82,0.22,CLR,SCT,0.89,WeatherDisplay:10.37,2013-02-15 05:00:00,
2013-02-15 00:05:00,65.8,60.2,30.41,NW,315,2.3,2.3,82,0.20,RA,SCT,0.00,WeatherDisplay:10.37,2013-02-15 05:05:00,
2013-02-15 00:10:00,66.0,60.4,30.41,NNE,22,2.3,2.3,82,0.17,RA,SCT,0.03,WeatherDisplay:10.37,2013-02-15 05:10:00,
2013-02-15 00:15:00,65.8,60.2,30.41,NNE,22,3.5,3.5,82,0.11,RA,SCT,0.03,WeatherDisplay:10.37,2013-02-15 05:15:00,
2013-02-15 00:20:00,66.0,60.4,30.41,NNE,22,3.6,3.6,82,0.11,CLR,SCT,0.03,WeatherDisplay:10.37,2013-02-15 05:20:00,
2013-02-15 00:25:00,65.8,59.8,30.41,NNE,22,3.6,3.6,81,0.09,CLR,SCT,0.03,WeatherDisplay:10.37,2013-02-15 05:25:00,
2013-02-15 00:30:00,65.7,59.3,30.41,NNE,22,4.6,4.6,80,0.14,RA,SCT,0.11,WeatherDisplay:10.37,2013-02-15 05:30:00,
2013-02-15 00:35:00,65.7,59.3,30.41,NW,315,3.5,3.5,80,0.14,RA,SCT,0.11,WeatherDisplay:10.37,2013-02-15 05:35:00,
2013-02-15 00:40:00,65.7,59.3,30.41,NE,45,3.5,3.5,80,0.11,,SCT,0.11,WeatherDisplay:10.37,2013-02-15 05:40:00,
2013-02-15 00:45:00,65.7,59.3,30.41,NNW,338,3.5,3.5,80,0.11,CLR,SCT,0.11,WeatherDisplay:10.37,2013-02-15 05:45:00,
2013-02-15 00:50:00,65.8,59.8,30.41,NNW,338,3.5,3.5,81,0.14,RA,SCT,0.14,WeatherDisplay:10.37,2013-02-15 05:50:00,
2013-02-15 00:55:00,65.7,59.3,30.41,NNE,22,2.8,2.8,80,0.14,RA,SCT,0.14,WeatherDisplay:10.37,2013-02-15 05:55:00,
2013-02-15 01:00:00,65.5,58.8,30.41,NNE,22,2.3,2.6,79,0.14,CLR,SCT,0.14,WeatherDisplay:10.37,2013-02-15 06:00:00,
2013-02-15 01:05:00,65.7,59.3,30.41,NNW,338,3.5,3.5,80,0.14,CLR,SCT,0.14,WeatherDisplay:10.37,2013-02-15 06:05:00,
2013-02-15 01:10:00,66.0,59.7,30.41,NNE,22,0.0,1.3,80,0.11,CLR,SCT,0.14,WeatherDisplay:10.37,2013-02-15 06:10:00,
2013-02-15 01:15:00,66.4,60.4,30.41,WSW,248,1.2,1.2,81,0.11,CLR,SCT,0.14,WeatherDisplay:10.37,2013-02-15 06:15:00,
2013-02-15 01:20:00,66.4,60.4,30.41,NW,315,0.0,0.3,81,0.11,CLR,SCT,0.14,WeatherDisplay:10.37,2013-02-15 06:20:00,
2013-02-15 01:25:00,66.2,59.8,30.41,NW,315,0.0,0.0,80,0.14,RA,SCT,0.17,WeatherDisplay:10.37,2013-02-15 06:25:00,
2013-02-15 01:30:00,66.2,59.8,30.41,NW,315,0.0,0.1,80,0.06,RA,SCT,0.17,WeatherDisplay:10.37,2013-02-15 06:30:00,
2013-02-15 01:35:00,66.0,59.3,30.41,NW,315,1.2,1.2,79,0.06,,SCT,0.17,WeatherDisplay:10.37,2013-02-15 06:35:00,
2013-02-15 01:40:00,65.8,59.1,30.41,NW,315,2.3,2.3,79,0.11,RA,SCT,0.22,WeatherDisplay:10.37,2013-02-15 06:40:00,
2013-02-15 01:45:00,66.0,59.0,30.41,North,0,2.3,2.3,78,0.11,RA,SCT,0.22,WeatherDisplay:10.37,2013-02-15 06:45:00,
2013-02-15 01:50:00,66.0,59.0,30.41,NNW,338,2.3,2.3,78,0.11,RA,SCT,0.25,WeatherDisplay:10.37,2013-02-15 06:50:00,
2013-02-15 01:55:00,66.4,59.3,30.41,WNW,292,0.0,1.0,78,0.11,RA,SCT,0.25,WeatherDisplay:10.37,2013-02-15 06:55:00,
2013-02-15 02:00:00,66.4,59.3,30.41,NW,315,2.3,2.3,78,0.11,,SCT,0.25,WeatherDisplay:10.37,2013-02-15 07:00:00,
2013-02-15 02:05:00,66.2,59.1,30.41,North,0,1.2,1.2,78,0.11,CLR,SCT,0.25,WeatherDisplay:10.37,2013-02-15 07:05:00,
2013-02-15 02:10:00,66.4,59.3,30.41,West,270,2.3,2.3,78,0.14,RA,SCT,0.28,WeatherDisplay:10.37,2013-02-15 07:10:00,
2013-02-15 02:15:00,66.4,59.3,30.41,NNW,338,3.5,3.5,78,0.14,RA,SCT,0.28,WeatherDisplay:10.37,2013-02-15 07:15:00,
2013-02-15 02:20:00,66.4,59.3,30.41,NNW,338,2.3,2.3,78,0.17,RA,SCT,0.30,WeatherDisplay:10.37,2013-02-15 07:20:00,
2013-02-15 02:25:00,66.2,59.1,30.41,NNE,22,2.3,2.3,78,0.19,RA,SCT,0.39,WeatherDisplay:10.37,2013-02-15 07:25:00,
2013-02-15 02:30:00,66.2,59.1,30.41,NW,315,1.2,1.2,78,0.25,RA,SCT,0.41,WeatherDisplay:10.37,2013-02-15 07:30:00,
2013-02-15 02:35:00,66.2,59.1,30.41,NNE,22,2.3,2.3,78,0.28,RA,SCT,0.44,WeatherDisplay:10.37,2013-02-15 07:35:00,
2013-02-15 02:40:00,66.4,59.3,30.41,NNW,338,0.0,0.3,78,0.25,RA,SCT,0.47,WeatherDisplay:10.37,2013-02-15 07:40:00,
2013-02-15 02:45:00,66.2,59.1,30.41,NNW,338,1.2,1.2,78,0.28,RA,SCT,0.50,WeatherDisplay:10.37,2013-02-15 07:45:00,
2013-02-15 02:50:00,66.2,59.1,30.41,NW,315,2.3,2.3,78,0.25,RA,SCT,0.50,WeatherDisplay:10.37,2013-02-15 07:50:00,
2013-02-15 02:55:00,66.6,59.8,30.41,WNW,292,2.3,2.3,79,0.25,,SCT,0.50,WeatherDisplay:10.37,2013-02-15 07:55:00,
2013-02-15 03:01:00,66.4,59.7,30.41,NW,315,0.0,0.7,79,0.33,RA,SCT,0.58,WeatherDisplay:10.37,2013-02-15 08:01:00,
2013-02-15 03:06:00,66.4,59.7,30.41,NNE,22,0.0,0.3,79,0.33,RA,SCT,0.61,WeatherDisplay:10.37,2013-02-15 08:06:00,
2013-02-15 03:11:00,66.6,59.8,30.41,NW,315,2.3,2.3,79,0.33,RA,SCT,0.61,WeatherDisplay:10.37,2013-02-15 08:11:00,
2013-02-15 03:16:00,66.7,60.0,30.41,NW,315,1.2,1.2,79,0.36,RA,SCT,0.63,WeatherDisplay:10.37,2013-02-15 08:16:00,
2013-02-15 03:21:00,66.9,60.2,30.41,NW,315,0.0,0.8,79,0.33,RA,SCT,0.63,WeatherDisplay:10.37,2013-02-15 08:21:00,
2013-02-15 03:26:00,66.9,60.2,30.41,NW,315,0.0,0.8,79,0.28,,SCT,0.63,WeatherDisplay:10.37,2013-02-15 08:26:00,
2013-02-15 03:31:00,66.9,60.2,30.41,WNW,292,1.2,1.2,79,0.22,CLR,SCT,0.63,WeatherDisplay:10.37,2013-02-15 08:31:00,
2013-02-15 03:36:00,67.1,60.4,30.41,NW,315,1.3,1.3,79,0.19,CLR,SCT,0.63,WeatherDisplay:10.37,2013-02-15 08:36:00,
2013-02-15 03:41:00,67.1,60.4,30.41,NNE,22,1.2,1.2,79,0.17,CLR,SCT,0.63,WeatherDisplay:10.37,2013-02-15 08:41:00,
2013-02-15 03:46:00,67.1,60.4,30.41,West,270,0.0,0.3,79,0.14,CLR,SCT,0.63,WeatherDisplay:10.37,2013-02-15 08:46:00,
2013-02-15 03:51:00,67.3,60.5,30.41,West,270,2.3,2.3,79,0.14,CLR,SCT,0.63,WeatherDisplay:10.37,2013-02-15 08:51:00,
2013-02-15 03:56:00,67.3,60.5,30.41,SW,225,0.0,1.0,79,0.14,CLR,SCT,0.63,WeatherDisplay:10.37,2013-02-15 08:56:00,
2013-02-15 04:01:00,67.1,60.4,30.41,West,270,0.0,0.7,79,0.08,RA,SCT,0.66,WeatherDisplay:10.37,2013-02-15 09:01:00,
2013-02-15 04:06:00,67.1,60.4,30.41,NNE,22,1.2,1.2,79,0.06,RA,SCT,0.66,WeatherDisplay:10.37,2013-02-15 09:06:00,
2013-02-15 04:11:00,67.1,60.4,30.41,NW,315,0.0,0.2,79,0.06,,SCT,0.66,WeatherDisplay:10.37,2013-02-15 09:11:00,
2013-02-15 04:16:00,67.1,60.4,30.41,West,270,2.3,2.3,79,0.03,CLR,SCT,0.66,WeatherDisplay:10.37,2013-02-15 09:16:00,
2013-02-15 04:21:00,66.9,60.2,30.41,NW,315,0.0,0.3,79,0.03,CLR,SCT,0.66,WeatherDisplay:10.37,2013-02-15 09:21:00,
2013-02-15 04:26:00,66.9,60.2,30.41,West,270,1.2,1.2,79,0.03,CLR,SCT,0.66,WeatherDisplay:10.37,2013-02-15 09:26:00,
2013-02-15 04:31:00,66.9,60.2,30.41,NW,315,0.0,0.3,79,0.03,CLR,SCT,0.66,WeatherDisplay:10.37,2013-02-15 09:31:00,
2013-02-15 04:36:00,67.1,60.4,30.41,WNW,292,0.0,0.1,79,0.03,CLR,SCT,0.66,WeatherDisplay:10.37,2013-02-15 09:36:00,
2013-02-15 04:41:00,67.1,60.4,30.41,NNE,22,0.0,0.1,79,0.03,CLR,SCT,0.66,WeatherDisplay:10.37,2013-02-15 09:41:00,
2013-02-15 04:46:00,67.1,60.4,30.41,NE,45,2.3,2.3,79,0.03,CLR,SCT,0.66,WeatherDisplay:10.37,2013-02-15 09:46:00,
2013-02-15 04:51:00,67.1,60.4,30.41,North,0,2.3,2.3,79,0.06,RA,SCT,0.69,WeatherDisplay:10.37,2013-02-15 09:51:00,
2013-02-15 04:56:00,67.3,60.5,30.41,South,180,0.0,0.7,79,0.06,RA,SCT,0.69,WeatherDisplay:10.37,2013-02-15 09:56:00,
2013-02-15 05:01:00,67.5,60.7,30.41,South,180,0.0,0.3,79,0.03,,SCT,0.69,WeatherDisplay:10.37,2013-02-15 10:01:00,
2013-02-15 05:06:00,67.5,60.7,30.41,NW,315,0.0,0.0,79,0.03,CLR,SCT,0.69,WeatherDisplay:10.37,2013-02-15 10:06:00,
2013-02-15 05:11:00,67.5,60.7,30.41,North,0,1.2,1.2,79,0.03,CLR,SCT,0.69,WeatherDisplay:10.37,2013-02-15 10:11:00,
2013-02-15 05:16:00,67.6,60.9,30.41,WNW,292,0.0,0.2,79,0.03,CLR,SCT,0.69,WeatherDisplay:10.37,2013-02-15 10:16:00,
2013-02-15 05:21:00,67.8,61.1,30.41,NE,45,0.0,0.1,79,0.03,CLR,SCT,0.69,WeatherDisplay:10.37,2013-02-15 10:21:00,
2013-02-15 05:26:00,67.6,60.9,30.41,NW,315,0.0,0.0,79,0.03,CLR,SCT,0.69,WeatherDisplay:10.37,2013-02-15 10:26:00,
2013-02-15 05:31:00,67.8,61.1,30.41,North,0,2.4,2.4,79,0.03,CLR,SCT,0.69,WeatherDisplay:10.37,2013-02-15 10:31:00,
2013-02-15 05:36:00,68.0,61.2,30.41,NNE,22,4.7,4.7,79,0.03,CLR,SCT,0.69,WeatherDisplay:10.37,2013-02-15 10:36:00,
2013-02-15 05:41:00,68.2,61.8,30.41,NNE,22,4.6,4.6,80,0.06,RA,SCT,0.72,WeatherDisplay:10.37,2013-02-15 10:41:00,
2013-02-15 05:46:00,68.2,61.8,30.41,NE,45,3.5,3.5,80,0.06,RA,SCT,0.72,WeatherDisplay:10.37,2013-02-15 10:46:00,
2013-02-15 05:51:00,68.2,61.8,30.41,WSW,248,3.5,3.5,80,0.03,CLR,SCT,0.72,WeatherDisplay:10.37,2013-02-15 10:51:00,
2013-02-15 05:56:00,68.2,61.8,30.41,NNE,22,3.5,3.5,80,0.03,CLR,SCT,0.72,WeatherDisplay:10.37,2013-02-15 10:56:00,
2013-02-15 06:01:00,68.2,61.8,30.41,NNE,22,4.6,4.6,80,0.03,CLR,SCT,0.72,WeatherDisplay:10.37,2013-02-15 11:01:00,
2013-02-15 06:06:00,68.2,62.1,30.41,NNW,338,5.8,5.8,81,0.03,CLR,SCT,0.72,WeatherDisplay:10.37,2013-02-15 11:06:00,
2013-02-15 06:11:00,68.2,62.1,30.41,NNE,22,5.8,5.8,81,0.03,CLR,SCT,0.72,WeatherDisplay:10.37,2013-02-15 11:11:00,
2013-02-15 06:16:00,68.2,62.1,30.41,NE,45,4.6,4.6,81,0.03,CLR,SCT,0.72,WeatherDisplay:10.37,2013-02-15 11:16:00,
2013-02-15 06:21:00,68.4,62.3,30.41,ENE,68,2.3,2.8,81,0.03,CLR,SCT,0.72,WeatherDisplay:10.37,2013-02-15 11:21:00,
2013-02-15 06:26:00,68.2,61.8,30.41,ENE,68,2.3,2.8,80,0.03,CLR,SCT,0.72,WeatherDisplay:10.37,2013-02-15 11:26:00,
2013-02-15 06:31:00,68.4,61.9,30.41,ENE,68,2.3,2.3,80,0.03,CLR,SCT,0.72,WeatherDisplay:10.37,2013-02-15 11:31:00,
2013-02-15 06:36:00,68.4,61.9,30.41,NNE,22,2.3,2.3,80,0.03,CLR,SCT,0.72,WeatherDisplay:10.37,2013-02-15 11:36:00,
2013-02-15 06:41:00,68.4,61.9,30.41,ENE,68,4.6,4.6,80,0.00,CLR,SCT,0.72,WeatherDisplay:10.37,2013-02-15 11:41:00,
2013-02-15 06:46:00,68.5,62.1,30.41,ESE,112,2.3,2.3,80,0.00,CLR,SCT,0.72,WeatherDisplay:10.37,2013-02-15 11:46:00,
2013-02-15 06:51:00,68.5,62.1,30.41,NNE,22,3.5,3.5,80,0.00,CLR,SCT,0.72,WeatherDisplay:10.37,2013-02-15 11:51:00,
2013-02-15 06:56:00,68.5,62.1,30.41,West,270,3.5,3.5,80,0.00,CLR,SCT,0.72,WeatherDisplay:10.37,2013-02-15 11:56:00,
2013-02-15 07:01:00,68.5,62.1,30.41,NNW,338,4.6,4.6,80,0.00,CLR,SCT,0.72,WeatherDisplay:10.37,2013-02-15 12:01:00,
2013-02-15 07:06:00,68.5,62.1,30.41,NNW,338,4.6,4.6,80,0.00,CLR,SCT,0.72,WeatherDisplay:10.37,2013-02-15 12:06:00,
2013-02-15 07:11:00,68.4,61.9,30.41,North,0,4.6,4.6,80,0.00,CLR,SCT,0.72,WeatherDisplay:10.37,2013-02-15 12:11:00,
2013-02-15 07:16:00,68.5,62.1,30.41,NE,45,1.2,2.6,80,0.00,CLR,SCT,0.72,WeatherDisplay:10.37,2013-02-15 12:16:00,
2013-02-15 07:21:00,68.5,62.1,30.41,NW,315,3.5,3.5,80,0.00,CLR,SCT,0.72,WeatherDisplay:10.37,2013-02-15 12:21:00,
2013-02-15 07:26:00,68.5,62.1,30.41,NNE,22,2.3,2.3,80,0.00,CLR,SCT,0.72,WeatherDisplay:10.37,2013-02-15 12:26:00,
2013-02-15 07:31:00,68.7,62.3,30.41,ENE,68,4.6,4.6,80,0.00,CLR,SCT,0.72,WeatherDisplay:10.37,2013-02-15 12:31:00,
2013-02-15 07:36:00,68.7,62.3,30.41,NNW,338,4.6,4.6,80,0.00,CLR,SCT,0.72,WeatherDisplay:10.37,2013-02-15 12:36:00,
2013-02-15 07:41:00,68.9,62.1,30.41,ENE,68,3.5,3.5,79,0.00,CLR,SCT,0.72,WeatherDisplay:10.37,2013-02-15 12:41:00,
2013-02-15 07:46:00,69.1,62.3,30.41,NNE,22,5.6,5.6,79,0.00,CLR,SCT,0.72,WeatherDisplay:10.37,2013-02-15 12:46:00,
2013-02-15 07:51:00,69.1,62.3,30.41,North,0,4.9,4.9,79,0.00,CLR,SCT,0.72,WeatherDisplay:10.37,2013-02-15 12:51:00,
2013-02-15 07:56:00,69.1,62.3,30.41,NNE,22,3.5,3.5,79,0.00,CLR,SCT,0.72,WeatherDisplay:10.37,2013-02-15 12:56:00,
2013-02-15 08:01:00,69.1,61.9,30.41,NNE,22,4.9,4.9,78,0.00,CLR,SCT,0.72,WeatherDisplay:10.37,2013-02-15 13:01:00,
2013-02-15 08:06:00,69.1,61.9,30.41,NNE,22,3.5,3.5,78,0.00,CLR,SCT,0.72,WeatherDisplay:10.37,2013-02-15 13:06:00,
2013-02-15 08:11:00,69.1,61.9,30.41,NNE,22,2.4,2.6,78,0.00,CLR,SCT,0.72,WeatherDisplay:10.37,2013-02-15 13:11:00,
2013-02-15 08:16:00,69.3,62.1,30.41,NNE,22,3.9,3.9,78,0.00,CLR,SCT,0.72,WeatherDisplay:10.37,2013-02-15 13:16:00,
2013-02-15 08:21:00,69.4,62.3,30.41,ENE,68,2.4,2.4,78,0.00,CLR,SCT,0.72,WeatherDisplay:10.37,2013-02-15 13:21:00,
2013-02-15 08:26:00,69.4,62.3,30.41,NE,45,8.1,8.1,78,0.00,CLR,SCT,0.72,WeatherDisplay:10.37,2013-02-15 13:26:00,
2013-02-15 08:31:00,69.4,62.3,30.41,NNE,22,4.6,4.6,78,0.00,CLR,SCT,0.72,WeatherDisplay:10.37,2013-02-15 13:31:00,
2013-02-15 08:36:00,69.6,62.5,30.41,East,90,4.6,4.6,78,0.00,CLR,SCT,0.72,WeatherDisplay:10.37,2013-02-15 13:36:00,
2013-02-15 08:41:00,69.8,62.6,30.41,ENE,68,4.6,4.6,78,0.00,CLR,SCT,0.72,WeatherDisplay:10.37,2013-02-15 13:41:00,
2013-02-15 08:46:00,69.8,62.3,30.41,NE,45,2.8,2.8,77,0.00,CLR,SCT,0.72,WeatherDisplay:10.37,2013-02-15 13:46:00,
2013-02-15 08:51:00,70.0,62.4,30.41,NNW,338,4.6,4.6,77,0.00,CLR,SCT,0.72,WeatherDisplay:10.37,2013-02-15 13:51:00,
2013-02-15 08:56:00,70.2,62.2,30.41,NNW,338,2.3,2.3,76,0.00,CLR,SCT,0.72,WeatherDisplay:10.37,2013-02-15 13:56:00,
2013-02-15 09:02:00,70.2,62.2,30.41,East,90,4.6,4.6,76,0.00,CLR,SCT,0.72,WeatherDisplay:10.37,2013-02-15 14:02:00,
2013-02-15 09:07:00,70.3,62.0,30.41,NE,45,4.6,4.6,75,0.00,CLR,SCT,0.72,WeatherDisplay:10.37,2013-02-15 14:07:00,
2013-02-15 09:12:00,70.5,62.2,30.41,East,90,4.6,4.6,75,0.00,CLR,SCT,0.72,WeatherDisplay:10.37,2013-02-15 14:12:00,
2013-02-15 09:17:00,70.5,61.8,30.41,ENE,68,3.5,3.5,74,0.00,CLR,SCT,0.72,WeatherDisplay:10.37,2013-02-15 14:17:00,
2013-02-15 09:22:00,70.9,62.2,30.41,ENE,68,3.5,3.5,74,0.00,CLR,SCT,0.72,WeatherDisplay:10.37,2013-02-15 14:22:00,
2013-02-15 09:27:00,71.2,62.1,30.41,ENE,68,4.6,4.6,73,0.00,CLR,SCT,0.72,WeatherDisplay:10.37,2013-02-15 14:27:00,
2013-02-15 09:32:00,71.6,62.5,30.41,East,90,5.8,5.8,73,0.00,CLR,SCT,0.72,WeatherDisplay:10.37,2013-02-15 14:32:00,
2013-02-15 09:37:00,72.0,62.4,30.41,West,270,3.5,3.5,72,0.00,CLR,SCT,0.72,WeatherDisplay:10.37,2013-02-15 14:37:00,
2013-02-15 09:42:00,72.1,62.6,30.41,ENE,68,3.5,3.5,72,0.00,CLR,SCT,0.72,WeatherDisplay:10.37,2013-02-15 14:42:00,
2013-02-15 09:47:00,72.1,62.6,30.41,NE,45,5.8,5.8,72,0.00,CLR,SCT,0.72,WeatherDisplay:10.37,2013-02-15 14:47:00,
2013-02-15 09:52:00,72.1,62.6,30.41,NNE,22,5.8,5.8,72,0.00,CLR,SCT,0.72,WeatherDisplay:10.37,2013-02-15 14:52:00,
2013-02-15 09:57:00,72.1,62.2,30.41,East,90,3.5,3.5,71,0.00,CLR,SCT,0.72,WeatherDisplay:10.37,2013-02-15 14:57:00,
2013-02-15 10:02:00,72.1,62.2,30.41,East,90,6.9,6.9,71,0.00,CLR,SCT,0.72,WeatherDisplay:10.37,2013-02-15 15:02:00,
2013-02-15 10:07:00,72.1,62.2,30.41,East,90,3.8,3.8,71,0.00,CLR,SCT,0.72,WeatherDisplay:10.37,2013-02-15 15:07:00,
2013-02-15 10:12:00,72.3,62.0,30.41,ESE,112,5.8,5.8,70,0.00,CLR,SCT,0.72,WeatherDisplay:10.37,2013-02-15 15:12:00,
2013-02-15 10:17:00,72.3,62.0,30.41,ENE,68,3.5,3.5,70,0.00,CLR,SCT,0.72,WeatherDisplay:10.37,2013-02-15 15:17:00,
2013-02-15 10:22:00,72.5,62.2,30.41,ENE,68,4.6,4.6,70,0.00,CLR,SCT,0.72,WeatherDisplay:10.37,2013-02-15 15:22:00,
2013-02-15 10:27:00,72.7,61.9,30.41,ENE,68,1.2,2.2,69,0.00,CLR,SCT,0.72,WeatherDisplay:10.37,2013-02-15 15:27:00,
2013-02-15 10:32:00,72.7,61.9,30.41,ENE,68,5.8,5.8,69,0.00,CLR,SCT,0.72,WeatherDisplay:10.37,2013-02-15 15:32:00,
2013-02-15 10:37:00,72.7,61.9,30.41,NE,45,4.6,4.6,69,0.00,CLR,SCT,0.72,WeatherDisplay:10.37,2013-02-15 15:37:00,
2013-02-15 10:42:00,72.5,61.3,30.41,ENE,68,3.5,3.5,68,0.00,CLR,SCT,0.72,WeatherDisplay:10.37,2013-02-15 15:42:00,
2013-02-15 10:47:00,72.5,61.3,30.41,ENE,68,3.5,3.5,68,0.00,CLR,SCT,0.72,WeatherDisplay:10.37,2013-02-15 15:47:00,
2013-02-15 10:52:00,72.7,61.5,30.41,NNE,22,2.6,2.6,68,0.00,CLR,SCT,0.72,WeatherDisplay:10.37,2013-02-15 15:52:00,
2013-02-15 10:57:00,72.5,61.3,30.41,ENE,68,4.6,4.6,68,0.00,CLR,SCT,0.72,WeatherDisplay:10.37,2013-02-15 15:57:00,
2013-02-15 11:02:00,72.5,61.3,30.41,ENE,68,3.5,3.5,68,0.00,CLR,SCT,0.72,WeatherDisplay:10.37,2013-02-15 16:02:00,
2013-02-15 11:07:00,72.5,61.3,30.41,NNE,22,2.3,2.3,68,0.00,CLR,SCT,0.72,WeatherDisplay:10.37,2013-02-15 16:07:00,
2013-02-15 11:12:00,72.5,61.3,30.41,East,90,3.5,3.5,68,0.00,CLR,SCT,0.72,WeatherDisplay:10.37,2013-02-15 16:12:00,
2013-02-15 11:17:00,72.5,61.3,30.41,East,90,2.3,2.3,68,0.00,CLR,SCT,0.72,WeatherDisplay:10.37,2013-02-15 16:17:00,
2013-02-15 11:22:00,72.7,61.5,30.41,ENE,68,2.3,2.3,68,0.03,RA,SCT,0.74,WeatherDisplay:10.37,2013-02-15 16:22:00,
2013-02-15 11:27:00,73.4,61.8,30.41,ENE,68,2.3,2.3,67,0.03,RA,SCT,0.74,WeatherDisplay:10.37,2013-02-15 16:27:00,
2013-02-15 11:32:00,74.1,62.5,30.41,NE,45,3.5,3.5,67,0.03,CLR,SCT,0.74,WeatherDisplay:10.37,2013-02-15 16:32:00,
2013-02-15 11:37:00,74.7,63.0,30.41,ENE,68,2.3,2.3,67,0.03,CLR,SCT,0.74,WeatherDisplay:10.37,2013-02-15 16:37:00,
2013-02-15 11:42:00,75.2,63.1,30.41,NE,45,3.5,3.5,66,0.03,CLR,SCT,0.74,WeatherDisplay:10.37,2013-02-15 16:42:00,
2013-02-15 11:47:00,75.0,62.9,30.41,East,90,4.6,4.6,66,0.03,CLR,SCT,0.74,WeatherDisplay:10.37,2013-02-15 16:47:00,
2013-02-15 11:52:00,74.5,61.9,30.41,NNE,22,4.6,4.6,65,0.03,CLR,SCT,0.74,WeatherDisplay:10.37,2013-02-15 16:52:00,
2013-02-15 11:57:00,74.1,61.6,30.41,NE,45,5.8,5.8,65,0.03,CLR,SCT,0.74,WeatherDisplay:10.37,2013-02-15 16:57:00,
2013-02-15 12:02:00,74.1,61.6,30.41,East,90,3.5,3.5,65,0.03,CLR,SCT,0.74,WeatherDisplay:10.37,2013-02-15 17:02:00,
2013-02-15 12:07:00,73.9,61.4,30.41,ENE,68,4.6,4.6,65,0.03,CLR,SCT,0.74,WeatherDisplay:10.37,2013-02-15 17:07:00,
2013-02-15 12:12:00,73.8,61.3,30.41,NNE,22,2.3,2.3,65,0.03,CLR,SCT,0.74,WeatherDisplay:10.37,2013-02-15 17:12:00,
2013-02-15 12:17:00,73.9,61.4,30.41,NNE,22,2.3,2.3,65,0.03,CLR,SCT,0.74,WeatherDisplay:10.37,2013-02-15 17:17:00,
2013-02-15 12:22:00,73.9,61.0,30.41,NNE,22,2.3,2.3,64,0.00,CLR,SCT,0.74,WeatherDisplay:10.37,2013-02-15 17:22:00,
2013-02-15 12:27:00,73.8,60.8,30.41,NNE,22,2.3,2.3,64,0.00,CLR,SCT,0.74,WeatherDisplay:10.37,2013-02-15 17:27:00,
2013-02-15 12:32:00,73.6,60.6,30.41,NNE,22,3.5,3.5,64,0.00,CLR,SCT,0.74,WeatherDisplay:10.37,2013-02-15 17:32:00,
2013-02-15 12:37:00,73.6,61.1,30.41,NNW,338,2.3,2.3,65,0.00,CLR,SCT,0.74,WeatherDisplay:10.37,2013-02-15 17:37:00,
2013-02-15 12:42:00,73.2,61.2,30.41,ESE,112,3.9,3.9,66,0.00,CLR,SCT,0.74,WeatherDisplay:10.37,2013-02-15 17:42:00,
2013-02-15 12:47:00,72.9,61.3,30.41,NNW,338,4.3,4.3,67,0.00,CLR,SCT,0.74,WeatherDisplay:10.37,2013-02-15 17:47:00,
2013-02-15 12:52:00,72.7,61.1,30.41,NNE,22,5.5,5.5,67,0.00,CLR,SCT,0.74,WeatherDisplay:10.37,2013-02-15 17:52:00,
2013-02-15 12:57:00,72.3,61.2,30.41,NNE,22,5.4,5.4,68,0.00,CLR,SCT,0.74,WeatherDisplay:10.37,2013-02-15 17:57:00,
2013-02-15 13:02:00,72.1,61.4,30.41,West,270,4.6,4.6,69,0.00,CLR,SCT,0.74,WeatherDisplay:10.37,2013-02-15 18:02:00,
2013-02-15 13:07:00,71.8,61.9,30.41,NW,315,5.8,5.8,71,0.00,CLR,SCT,0.74,WeatherDisplay:10.37,2013-02-15 18:07:00,
2013-02-15 13:12:00,71.6,62.1,30.41,NNE,22,5.8,5.8,72,0.03,RA,SCT,0.77,WeatherDisplay:10.37,2013-02-15 18:12:00,
2013-02-15 13:17:00,71.4,62.3,30.41,NNW,338,5.8,5.8,73,0.03,RA,SCT,0.77,WeatherDisplay:10.37,2013-02-15 18:17:00,
2013-02-15 13:22:00,71.2,62.5,30.41,NW,315,6.9,6.9,74,0.06,RA,SCT,0.80,WeatherDisplay:10.37,2013-02-15 18:22:00,
2013-02-15 13:27:00,70.9,62.2,30.41,WNW,292,6.9,6.9,74,0.06,RA,SCT,0.83,WeatherDisplay:10.37,2013-02-15 18:27:00,
2013-02-15 13:32:00,70.5,61.4,30.41,North,0,7.1,7.1,73,0.08,RA,SCT,0.83,WeatherDisplay:10.37,2013-02-15 18:32:00,
2013-02-15 13:37:00,70.3,61.3,30.41,NW,315,5.8,5.8,73,0.08,RA,SCT,0.83,WeatherDisplay:10.37,2013-02-15 18:37:00,
2013-02-15 13:42:00,70.2,61.1,30.41,NW,315,5.8,5.8,73,0.08,CLR,SCT,0.85,WeatherDisplay:10.37,2013-02-15 18:42:00,
2013-02-15 13:47:00,70.2,60.7,30.41,WNW,292,4.6,4.6,72,0.11,RA,SCT,0.85,WeatherDisplay:10.37,2013-02-15 18:47:00,
2013-02-15 13:53:00,69.8,60.0,30.41,ENE,68,4.6,4.6,71,0.11,,SCT,0.85,WeatherDisplay:10.37,2013-02-15 18:53:00,
2013-02-15 13:58:00,69.8,59.2,30.41,WNW,292,6.9,6.9,69,0.11,CLR,SCT,0.85,WeatherDisplay:10.37,2013-02-15 18:58:00,
2013-02-15 14:03:00,69.6,58.6,30.41,NW,315,2.3,3.8,68,0.11,CLR,SCT,0.85,WeatherDisplay:10.37,2013-02-15 19:03:00,
2013-02-15 14:08:00,69.3,58.2,30.41,North,0,6.9,6.9,68,0.11,CLR,SCT,0.85,WeatherDisplay:10.37,2013-02-15 19:08:00,
2013-02-15 14:13:00,68.9,58.3,30.41,NNW,338,4.6,4.6,69,0.08,CLR,SCT,0.85,WeatherDisplay:10.37,2013-02-15 19:13:00,
2013-02-15 14:18:00,68.9,58.3,30.41,NNW,338,2.3,3.0,69,0.08,CLR,SCT,0.85,WeatherDisplay:10.37,2013-02-15 19:18:00,
2013-02-15 14:23:00,68.9,58.7,30.41,NNW,338,3.5,3.5,70,0.06,CLR,SCT,0.85,WeatherDisplay:10.37,2013-02-15 19:23:00,
2013-02-15 14:28:00,69.1,59.3,30.41,West,270,3.5,3.5,71,0.03,CLR,SCT,0.85,WeatherDisplay:10.37,2013-02-15 19:28:00,
2013-02-15 14:33:00,68.9,59.1,30.41,NNE,22,4.6,4.6,71,0.03,CLR,SCT,0.85,WeatherDisplay:10.37,2013-02-15 19:33:00,
2013-02-15 14:38:00,69.1,59.7,30.41,NW,315,5.8,5.8,72,0.03,CLR,SCT,0.85,WeatherDisplay:10.37,2013-02-15 19:38:00,
2013-02-15 14:43:00,69.1,59.7,30.41,NNW,338,3.8,3.8,72,0.00,CLR,SCT,0.85,WeatherDisplay:10.37,2013-02-15 19:43:00,
2013-02-15 14:48:00,69.1,60.1,30.41,NW,315,3.5,3.5,73,0.03,RA,SCT,0.88,WeatherDisplay:10.37,2013-02-15 19:48:00,
2013-02-15 14:53:00,69.3,60.2,30.41,NW,315,3.5,3.5,73,0.03,RA,SCT,0.88,WeatherDisplay:10.37,2013-02-15 19:53:00,
2013-02-15 14:58:00,69.1,60.4,30.41,WNW,292,2.6,2.6,74,0.03,,SCT,0.88,WeatherDisplay:10.37,2013-02-15 19:58:00,
2013-02-15 15:03:00,69.1,60.4,30.41,NW,315,4.6,4.6,74,0.03,CLR,SCT,0.88,WeatherDisplay:10.37,2013-02-15 20:03:00,
2013-02-15 15:08:00,68.9,60.3,30.41,NNE,22,5.8,5.8,74,0.03,CLR,SCT,0.88,WeatherDisplay:10.37,2013-02-15 20:08:00,
2013-02-15 15:13:00,69.1,60.4,30.41,North,0,3.5,3.5,74,0.06,RA,SCT,0.91,WeatherDisplay:10.37,2013-02-15 20:13:00,
2013-02-15 15:18:00,69.1,60.4,30.41,NW,315,3.5,3.5,74,0.06,RA,SCT,0.91,WeatherDisplay:10.37,2013-02-15 20:18:00,
2013-02-15 15:23:00,69.1,60.4,30.41,SW,225,2.3,2.3,74,0.06,,SCT,0.91,WeatherDisplay:10.37,2013-02-15 20:23:00,
2013-02-15 15:28:00,68.9,60.3,30.41,NW,315,4.6,4.6,74,0.06,CLR,SCT,0.91,WeatherDisplay:10.37,2013-02-15 20:28:00,
2013-02-15 15:33:00,68.9,60.3,30.41,ENE,68,3.5,3.5,74,0.06,CLR,SCT,0.91,WeatherDisplay:10.37,2013-02-15 20:33:00,
2013-02-15 15:38:00,68.9,60.6,30.41,NNW,338,2.3,2.3,75,0.06,CLR,SCT,0.91,WeatherDisplay:10.37,2013-02-15 20:38:00,
2013-02-15 15:43:00,69.1,60.8,30.41,North,0,2.3,2.3,75,0.06,CLR,SCT,0.91,WeatherDisplay:10.37,2013-02-15 20:43:00,
2013-02-15 15:48:00,69.1,60.8,30.41,NNE,22,3.5,3.5,75,0.06,RA,SCT,0.94,WeatherDisplay:10.37,2013-02-15 20:48:00,
2013-02-15 15:53:00,68.9,60.6,30.41,West,270,2.3,2.6,75,0.06,RA,SCT,0.94,WeatherDisplay:10.37,2013-02-15 20:53:00,
2013-02-15 15:58:00,69.1,60.8,30.41,WSW,248,3.5,3.5,75,0.06,CLR,SCT,0.94,WeatherDisplay:10.37,2013-02-15 20:58:00,
2013-02-15 16:03:00,68.9,60.6,30.41,NNE,22,3.5,3.5,75,0.06,CLR,SCT,0.97,WeatherDisplay:10.37,2013-02-15 21:03:00,
2013-02-15 16:08:00,68.7,60.5,30.41,NW,315,2.3,2.6,75,0.09,RA,SCT,0.97,WeatherDisplay:10.37,2013-02-15 21:08:00,
2013-02-15 16:13:00,68.5,60.3,30.41,NNE,22,4.6,4.6,75,0.08,RA,SCT,1.00,WeatherDisplay:10.37,2013-02-15 21:13:00,
2013-02-15 16:18:00,68.4,60.1,30.41,ENE,68,3.5,3.5,75,0.08,RA,SCT,1.00,WeatherDisplay:10.37,2013-02-15 21:18:00,
2013-02-15 16:23:00,68.4,60.5,30.41,NW,315,4.6,4.6,76,0.08,,SCT,1.00,WeatherDisplay:10.37,2013-02-15 21:23:00,
2013-02-15 16:28:00,68.4,60.5,30.41,NNW,338,5.8,5.8,76,0.08,CLR,SCT,1.00,WeatherDisplay:10.37,2013-02-15 21:28:00,
2013-02-15 16:33:00,68.4,60.1,30.41,NNW,338,4.6,4.6,75,0.08,CLR,SCT,1.02,WeatherDisplay:10.37,2013-02-15 21:33:00,
2013-02-15 16:38:00,68.4,60.1,30.41,NW,315,3.5,3.5,75,0.11,RA,SCT,1.02,WeatherDisplay:10.37,2013-02-15 21:38:00,
2013-02-15 16:43:00,68.2,60.3,30.41,NNW,338,3.5,3.5,76,0.11,RA,SCT,1.02,WeatherDisplay:10.37,2013-02-15 21:43:00,
2013-02-15 16:48:00,68.2,60.3,30.41,West,270,3.5,3.5,76,0.08,CLR,SCT,1.02,WeatherDisplay:10.37,2013-02-15 21:48:00,
2013-02-15 16:53:00,68.4,60.5,30.41,NW,315,1.2,1.5,76,0.08,CLR,SCT,1.02,WeatherDisplay:10.37,2013-02-15 21:53:00,
2013-02-15 16:58:00,68.4,60.1,30.41,NW,315,3.5,3.5,75,0.08,CLR,SCT,1.02,WeatherDisplay:10.37,2013-02-15 21:58:00,
2013-02-15 17:03:00,68.4,60.1,30.41,NW,315,2.3,2.3,75,0.08,CLR,SCT,1.02,WeatherDisplay:10.37,2013-02-15 22:03:00,
2013-02-15 17:09:00,68.2,60.0,30.41,WNW,292,1.2,1.2,75,0.06,CLR,SCT,1.02,WeatherDisplay:10.37,2013-02-15 22:09:00,
2013-02-15 17:14:00,68.2,60.0,30.41,WNW,292,2.3,2.3,75,0.03,CLR,SCT,1.02,WeatherDisplay:10.37,2013-02-15 22:14:00,
2013-02-15 17:19:00,68.2,60.0,30.41,NW,315,3.5,3.5,75,0.03,CLR,SCT,1.02,WeatherDisplay:10.37,2013-02-15 22:19:00,
2013-02-15 17:24:00,68.0,59.8,30.41,NNE,22,1.2,1.8,75,0.03,CLR,SCT,1.02,WeatherDisplay:10.37,2013-02-15 22:24:00,
2013-02-15 17:29:00,68.0,59.8,30.41,NNE,22,4.6,4.6,75,0.03,CLR,SCT,1.02,WeatherDisplay:10.37,2013-02-15 22:29:00,
2013-02-15 17:34:00,67.8,59.6,30.41,NW,315,4.6,4.6,75,0.00,CLR,SCT,1.02,WeatherDisplay:10.37,2013-02-15 22:34:00,
2013-02-15 17:39:00,67.8,59.6,30.41,North,0,3.5,3.5,75,0.00,CLR,SCT,1.02,WeatherDisplay:10.37,2013-02-15 22:39:00,
2013-02-15 17:44:00,67.8,59.6,30.41,NNE,22,5.8,5.8,75,0.00,CLR,SCT,1.02,WeatherDisplay:10.37,2013-02-15 22:44:00,
2013-02-15 17:49:00,67.8,60.0,30.41,NW,315,3.5,3.5,76,0.00,CLR,SCT,1.02,WeatherDisplay:10.37,2013-02-15 22:49:00,
2013-02-15 17:54:00,67.5,59.6,30.41,NNW,338,4.6,4.6,76,0.00,CLR,SCT,1.02,WeatherDisplay:10.37,2013-02-15 22:54:00,
2013-02-15 17:59:00,67.5,59.3,30.41,North,0,4.6,4.6,75,0.00,CLR,SCT,1.02,WeatherDisplay:10.37,2013-02-15 22:59:00,
2013-02-15 18:05:00,67.3,59.1,30.41,NNE,22,5.8,5.8,75,0.00,CLR,SCT,1.02,WeatherDisplay:10.37,2013-02-15 23:05:00,
2013-02-15 18:10:00,67.3,59.5,30.41,North,0,3.5,3.5,76,0.00,CLR,SCT,1.02,WeatherDisplay:10.37,2013-02-15 23:10:00,
2013-02-15 18:15:00,67.5,59.6,30.41,NNE,22,4.6,4.6,76,0.00,CLR,SCT,1.02,WeatherDisplay:10.37,2013-02-15 23:15:00,
2013-02-15 18:20:00,67.6,59.8,30.41,North,0,2.3,2.3,76,0.00,CLR,SCT,1.02,WeatherDisplay:10.37,2013-02-15 23:20:00,
2013-02-15 18:25:00,67.6,59.8,30.41,NNW,338,1.4,1.4,76,0.00,CLR,SCT,1.02,WeatherDisplay:10.37,2013-02-15 23:25:00,
2013-02-15 18:30:00,67.5,59.6,30.41,WNW,292,4.6,4.6,76,0.00,CLR,SCT,1.02,WeatherDisplay:10.37,2013-02-15 23:30:00,
2013-02-15 18:35:00,67.6,59.8,30.41,WNW,292,3.5,3.5,76,0.00,CLR,SCT,1.02,WeatherDisplay:10.37,2013-02-15 23:35:00,
2013-02-15 18:40:00,67.6,59.8,30.41,North,0,1.2,1.2,76,0.00,CLR,SCT,1.02,WeatherDisplay:10.37,2013-02-15 23:40:00,
2013-02-15 18:45:00,67.5,59.6,30.41,NW,315,3.5,3.5,76,0.00,CLR,SCT,1.02,WeatherDisplay:10.37,2013-02-15 23:45:00,
2013-02-15 18:50:00,67.5,59.6,30.41,NNE,22,2.3,2.3,76,0.00,CLR,SCT,1.02,WeatherDisplay:10.37,2013-02-15 23:50:00,
2013-02-15 18:55:00,67.3,59.5,30.41,NNE,22,3.9,3.9,76,0.03,RA,SCT,1.05,WeatherDisplay:10.37,2013-02-15 23:55:00,
2013-02-15 19:00:00,67.3,59.5,30.41,NNW,338,3.5,3.5,76,0.03,RA,SCT,1.05,WeatherDisplay:10.37,2013-02-16 00:00:00,
2013-02-15 19:05:00,67.1,59.3,30.41,NNE,22,3.5,3.5,76,0.03,,SCT,1.05,WeatherDisplay:10.37,2013-02-16 00:05:00,
2013-02-15 19:10:00,67.1,59.6,30.41,NW,315,2.3,2.3,77,0.03,CLR,SCT,1.05,WeatherDisplay:10.37,2013-02-16 00:10:00,
2013-02-15 19:15:00,67.3,59.8,30.41,NNW,338,2.3,2.3,77,0.03,CLR,SCT,1.05,WeatherDisplay:10.37,2013-02-16 00:15:00,
2013-02-15 19:20:00,67.5,60.0,30.41,NNW,338,0.0,0.7,77,0.03,CLR,SCT,1.05,WeatherDisplay:10.37,2013-02-16 00:20:00,
2013-02-15 19:30:00,67.6,60.2,30.41,NE,45,0.0,0.1,77,0.03,CLR,SCT,1.05,WeatherDisplay:10.37,2013-02-16 00:30:00,
2013-02-15 19:35:00,67.8,60.3,30.41,South,180,0.0,0.0,77,0.03,CLR,SCT,1.05,WeatherDisplay:10.37,2013-02-16 00:35:00,
2013-02-15 19:40:00,68.0,60.2,30.41,South,180,0.0,0.0,76,0.03,CLR,SCT,1.05,WeatherDisplay:10.37,2013-02-16 00:40:00,
2013-02-15 19:45:00,67.8,60.0,30.41,East,90,0.0,0.0,76,0.03,CLR,SCT,1.05,WeatherDisplay:10.37,2013-02-16 00:45:00,
2013-02-15 19:50:00,67.8,60.0,30.41,ESE,112,0.0,0.0,76,0.03,CLR,SCT,1.05,WeatherDisplay:10.37,2013-02-16 00:50:00,
2013-02-15 19:55:00,68.2,60.3,30.41,ESE,112,0.0,0.0,76,0.00,CLR,SCT,1.05,WeatherDisplay:10.37,2013-02-16 00:55:00,
2013-02-15 20:00:00,68.2,60.3,30.41,ESE,112,0.0,0.0,76,0.00,CLR,SCT,1.05,WeatherDisplay:10.37,2013-02-16 01:00:00,
2013-02-15 20:05:00,68.2,60.3,30.41,ESE,112,0.0,0.0,76,0.03,RA,SCT,1.08,WeatherDisplay:10.37,2013-02-16 01:05:00,
2013-02-15 20:10:00,68.4,60.5,30.41,South,180,0.0,0.0,76,0.03,RA,SCT,1.08,WeatherDisplay:10.37,2013-02-16 01:10:00,
2013-02-15 20:15:00,68.4,60.5,30.41,ENE,68,0.0,0.0,76,0.03,CLR,SCT,1.08,WeatherDisplay:10.37,2013-02-16 01:15:00,
2013-02-15 20:20:00,68.4,60.5,30.41,WSW,248,0.0,0.0,76,0.03,CLR,SCT,1.08,WeatherDisplay:10.37,2013-02-16 01:20:00,
2013-02-15 20:25:00,68.4,60.5,30.41,WSW,248,0.0,0.0,76,0.03,CLR,SCT,1.08,WeatherDisplay:10.37,2013-02-16 01:25:00,
2013-02-15 20:30:00,68.2,60.3,30.41,South,180,0.0,0.0,76,0.03,CLR,SCT,1.08,WeatherDisplay:10.37,2013-02-16 01:30:00,
2013-02-15 20:35:00,68.4,60.5,30.41,SE,135,0.0,0.0,76,0.03,CLR,SCT,1.08,WeatherDisplay:10.37,2013-02-16 01:35:00,
2013-02-15 20:40:00,68.2,60.3,30.41,SSE,158,0.0,0.0,76,0.06,RA,SCT,1.11,WeatherDisplay:10.37,2013-02-16 01:40:00,
2013-02-15 20:45:00,68.2,60.3,30.41,ENE,68,0.0,0.0,76,0.06,RA,SCT,1.11,WeatherDisplay:10.37,2013-02-16 01:45:00,
2013-02-15 20:50:00,68.0,60.2,30.41,ENE,68,0.0,0.0,76,0.06,CLR,SCT,1.11,WeatherDisplay:10.37,2013-02-16 01:50:00,
2013-02-15 20:55:00,68.2,60.3,30.41,ESE,112,0.0,0.0,76,0.06,CLR,SCT,1.11,WeatherDisplay:10.37,2013-02-16 01:55:00,
2013-02-15 21:00:00,68.0,60.2,30.41,ESE,112,0.0,0.0,76,0.06,CLR,SCT,1.11,WeatherDisplay:10.37,2013-02-16 02:00:00,
2013-02-15 21:05:00,68.0,60.2,30.41,SE,135,0.0,0.0,76,0.03,CLR,SCT,1.11,WeatherDisplay:10.37,2013-02-16 02:05:00,
2013-02-15 21:10:00,68.2,60.3,30.41,ESE,112,0.0,0.0,76,0.03,CLR,SCT,1.11,WeatherDisplay:10.37,2013-02-16 02:10:00,
2013-02-15 21:15:00,68.2,60.3,30.41,ESE,112,0.0,0.0,76,0.03,CLR,SCT,1.11,WeatherDisplay:10.37,2013-02-16 02:15:00,
2013-02-15 21:20:00,68.0,60.2,30.41,NNE,22,0.0,0.0,76,0.03,CLR,SCT,1.11,WeatherDisplay:10.37,2013-02-16 02:20:00,
2013-02-15 21:25:00,67.8,60.0,30.41,NW,315,0.0,0.0,76,0.03,CLR,SCT,1.11,WeatherDisplay:10.37,2013-02-16 02:25:00,
2013-02-15 21:30:00,68.0,60.2,30.41,NW,315,0.0,0.0,76,0.03,CLR,SCT,1.11,WeatherDisplay:10.37,2013-02-16 02:30:00,
2013-02-15 21:35:00,68.0,60.2,30.41,NW,315,0.0,0.0,76,0.03,CLR,SCT,1.11,WeatherDisplay:10.37,2013-02-16 02:35:00,
2013-02-15 21:40:00,67.8,60.3,30.41,NNW,338,2.3,2.3,77,0.00,CLR,SCT,1.11,WeatherDisplay:10.37,2013-02-16 02:40:00,
2013-02-15 21:45:00,67.8,60.3,30.41,NW,315,2.3,2.3,77,0.00,CLR,SCT,1.11,WeatherDisplay:10.37,2013-02-16 02:45:00,
2013-02-15 21:51:00,67.8,60.3,30.41,NNW,338,2.3,2.3,77,0.00,CLR,SCT,1.11,WeatherDisplay:10.37,2013-02-16 02:51:00,
2013-02-15 21:55:00,67.8,60.3,30.41,NNW,338,2.3,2.3,77,0.00,CLR,SCT,1.11,WeatherDisplay:10.37,2013-02-16 02:55:00,
2013-02-15 22:01:00,67.8,60.3,30.41,NNW,338,0.0,0.5,77,0.00,CLR,SCT,1.11,WeatherDisplay:10.37,2013-02-16 03:01:00,
2013-02-15 22:06:00,67.8,60.3,30.41,NW,315,0.0,0.2,77,0.00,CLR,SCT,1.11,WeatherDisplay:10.37,2013-02-16 03:06:00,
2013-02-15 22:11:00,67.5,60.0,30.41,NNE,22,2.3,2.3,77,0.00,CLR,SCT,1.11,WeatherDisplay:10.37,2013-02-16 03:11:00,
2013-02-15 22:16:00,67.5,60.0,30.41,NNW,338,1.2,1.2,77,0.00,CLR,SCT,1.11,WeatherDisplay:10.37,2013-02-16 03:16:00,
2013-02-15 22:21:00,67.5,59.6,30.41,NNW,338,1.2,1.2,76,0.00,CLR,SCT,1.11,WeatherDisplay:10.37,2013-02-16 03:21:00,
2013-02-15 22:26:00,67.3,59.5,30.41,NNW,338,1.2,1.2,76,0.00,CLR,SCT,1.11,WeatherDisplay:10.37,2013-02-16 03:26:00,
2013-02-15 22:31:00,67.5,59.6,30.41,NNE,22,0.0,0.3,76,0.00,CLR,SCT,1.11,WeatherDisplay:10.37,2013-02-16 03:31:00,
2013-02-15 22:36:00,67.5,60.0,30.41,NW,315,1.2,1.2,77,0.00,CLR,SCT,1.11,WeatherDisplay:10.37,2013-02-16 03:36:00,
2013-02-15 22:41:00,67.8,60.0,30.41,NW,315,0.0,0.5,76,0.00,CLR,SCT,1.11,WeatherDisplay:10.37,2013-02-16 03:41:00,
2013-02-15 22:46:00,67.6,59.8,30.41,NNE,22,1.2,1.2,76,0.00,CLR,SCT,1.11,WeatherDisplay:10.37,2013-02-16 03:46:00,
2013-02-15 22:51:00,67.5,59.6,30.41,NNE,22,2.3,2.3,76,0.00,CLR,SCT,1.11,WeatherDisplay:10.37,2013-02-16 03:51:00,
2013-02-15 22:56:00,67.6,59.8,30.41,NW,315,1.2,1.2,76,0.00,CLR,SCT,1.11,WeatherDisplay:10.37,2013-02-16 03:56:00,
2013-02-15 23:01:00,67.5,59.6,30.41,NW,315,2.3,2.3,76,0.00,CLR,SCT,1.11,WeatherDisplay:10.37,2013-02-16 04:01:00,
2013-02-15 23:06:00,67.6,59.8,30.41,North,0,0.0,0.6,76,0.00,CLR,SCT,1.11,WeatherDisplay:10.37,2013-02-16 04:06:00,
2013-02-15 23:11:00,68.0,60.2,30.41,SSE,158,0.0,0.3,76,0.00,CLR,SCT,1.11,WeatherDisplay:10.37,2013-02-16 04:11:00,
2013-02-15 23:16:00,68.0,60.2,30.41,NW,315,0.0,0.1,76,0.00,CLR,SCT,1.11,WeatherDisplay:10.37,2013-02-16 04:16:00,
2013-02-15 23:21:00,68.2,60.3,30.41,NW,315,0.0,0.0,76,0.00,CLR,SCT,1.11,WeatherDisplay:10.37,2013-02-16 04:21:00,
2013-02-15 23:26:00,67.8,60.0,30.41,WNW,292,0.0,0.0,76,0.00,CLR,SCT,1.11,WeatherDisplay:10.37,2013-02-16 04:26:00,
2013-02-15 23:31:00,68.2,60.3,30.41,West,270,0.0,0.0,76,0.00,CLR,SCT,1.11,WeatherDisplay:10.37,2013-02-16 04:31:00,
2013-02-15 23:36:00,68.2,60.3,30.41,West,270,0.0,0.0,76,0.00,CLR,SCT,1.11,WeatherDisplay:10.37,2013-02-16 04:36:00,
2013-02-15 23:41:00,68.4,60.5,30.41,West,270,0.0,0.0,76,0.00,CLR,SCT,1.11,WeatherDisplay:10.37,2013-02-16 04:41:00,
2013-02-15 23:46:00,68.5,60.7,30.41,SW,225,0.0,0.0,76,0.00,CLR,SCT,1.11,WeatherDisplay:10.37,2013-02-16 04:46:00,
2013-02-15 23:51:00,68.5,60.7,30.41,SSW,202,0.0,0.0,76,0.00,CLR,SCT,1.11,WeatherDisplay:10.37,2013-02-16 04:51:00,
2013-02-15 23:56:00,68.5,60.7,30.41,SW,225,0.0,0.0,76,0.00,CLR,SCT,1.11,WeatherDisplay:10.37,2013-02-16 04:56:00,